TimeMDT,TemperatureF,Dew PointF,Humidity,Sea Level PressureIn,VisibilityMPH,Wind Direction,Wind SpeedMPH,Gust SpeedMPH,PrecipitationIn,Events,Conditions,WindDirDegrees,DateUTC
12:48 AM,25.0,21.9,88,30.53,-9999.0,WNW,3.5,-,N/A,,Unknown,300,2012-10-06 06:48:00
1:48 AM,23.0,19.9,88,30.52,-9999.0,WNW,4.6,-,N/A,,Unknown,290,2012-10-06 07:48:00
2:48 AM,23.0,19.9,88,30.52,-9999.0,Calm,Calm,-,N/A,,Unknown,0,2012-10-06 08:48:00
3:48 AM,19.9,17.1,89,30.50,-9999.0,West,3.5,-,N/A,,Unknown,270,2012-10-06 09:48:00
4:48 AM,21.0,17.1,85,30.49,-9999.0,WNW,3.5,-,N/A,,Unknown,290,2012-10-06 10:48:00
5:48 AM,19.9,17.1,89,30.49,-9999.0,Calm,Calm,-,N/A,,Unknown,0,2012-10-06 11:48:00
6:48 AM,19.9,16.0,85,30.50,-9999.0,Calm,Calm,-,N/A,,Unknown,0,2012-10-06 12:48:00
7:48 AM,19.9,18.0,92,30.49,-9999.0,Calm,Calm,-,N/A,,Unknown,0,2012-10-06 13:48:00
8:48 AM,30.0,25.0,82,30.47,-9999.0,Calm,Calm,-,N/A,,Unknown,0,2012-10-06 14:48:00
9:48 AM,36.0,30.9,82,30.44,-9999.0,SW,6.9,-,N/A,,Unknown,220,2012-10-06 15:48:00
10:48 AM,42.1,30.0,62,30.42,-9999.0,SW,11.5,-,N/A,,Unknown,220,2012-10-06 16:48:00
11:48 AM,45.0,26.1,48,30.39,-9999.0,SW,16.1,-,N/A,,Unknown,230,2012-10-06 17:48:00
12:48 PM,46.0,28.0,50,30.36,-9999.0,SW,13.8,-,N/A,,Unknown,220,2012-10-06 18:48:00
1:48 PM,48.0,28.0,46,30.33,-9999.0,SW,12.7,20.7,N/A,,Unknown,220,2012-10-06 19:48:00
2:48 PM,50.0,23.0,35,30.28,-9999.0,SW,15.0,23.0,N/A,,Unknown,220,2012-10-06 20:48:00
3:48 PM,51.1,21.9,32,30.26,-9999.0,WSW,17.3,23.0,N/A,,Unknown,250,2012-10-06 21:48:00
4:48 PM,51.1,18.0,27,30.24,-9999.0,West,15.0,23.0,N/A,,Unknown,260,2012-10-06 22:48:00
6:48 PM,41.0,27.0,57,30.24,-9999.0,WNW,4.6,-,N/A,,Unknown,290,2012-10-07 00:48:00
7:48 PM,36.0,26.1,67,30.23,-9999.0,Calm,Calm,-,N/A,,Unknown,0,2012-10-07 01:48:00
8:48 PM,30.0,25.0,82,30.21,-9999.0,Calm,Calm,-,N/A,,Unknown,0,2012-10-07 02:48:00
9:48 PM,33.1,27.0,78,30.19,-9999.0,WNW,5.8,-,N/A,,Unknown,290,2012-10-07 03:48:00
10:48 PM,30.9,25.0,79,30.16,-9999.0,WNW,5.8,-,N/A,,Unknown,290,2012-10-07 04:48:00
11:48 PM,32.0,26.1,79,30.15,-9999.0,WNW,8.1,-,N/A,,Unknown,290,2012-10-07 05:48:00